Weather in Kuliga

Russia / Kursk Oblast     51°15′57″N   36°17′55″E
temp.,
°C
wind,
m/s
gust,
m/s
humid.,
%
clouds,
%
prec.,
mm/h
press.,
hPa
HPBL,
m
25 february, thu
thu2500:00−8ssw4895100 0.3 1033278
03:00−6sw4796100 0.5 1031247
06:00−5sw4796100 0.1 1029267
09:00−2wsw51097100 0.2 1027455
12:00+1wsw611100100 0.0 1026299
15:00+2wsw613100100 0.0 1023338
18:00+2w511100100 0.1 1022256
21:00+2w511100100 0.1 1022269
26 february, fri
fri2600:00+2wnw51099100 0.0 1022279
03:00+1w51099100 0.0 1022254
06:00+2w49100100 0.0 1021211
09:00+2w51099100 0.0 1020274
12:00+2wsw613100100 0.0 1018422
15:00+2wsw71499100 0.0 1017437
18:00+2w61398100 0.1 1015372
21:00+2w51298100 0.1 1015374
27 february, sat
sat2700:00+1w5129799 0.0 1013408
03:00+1w51196100 0.0 1012420
06:00+1w51195100 0.0 1010431
09:00+1w51195100 0.1 1010574
12:000wnw51098100 0.2 1009549
15:00+1wnw51099100 0.3 1009524
18:00+1wnw61196100 0.1 1009507
21:000nw61097100 0.3 1010573
28 february, sun
sun2800:000nnw61195100 0.2 1011584
03:00−1n6109198 0.4 1014751
06:00−4n6128886 0.0 1015754
09:00−4n698592 0.1 1017760
12:00−3nnw5883100 0.1 1019760
15:00−3nnw6886100 0.1 1020732
18:00−3n5987100 0.1 1021808
21:00−3n2895100 0.1 1023588
1 march, mon
mon100:00−4n249790 0.1 1024202
03:00−4nne369295 0.2 1026555
06:00−5n379193 0.0 1027355
09:00−4n468496 0.1 1029703
12:00−3n457999 0.1 1031851
15:00−2nnw347799 0.1 1031748
18:00−3nw248985 0.0 1031118
21:00−4wnw338874 0.0 103275